15 daagse weersverwachting Thun (CH)

  • Overzicht
  • Per uur
  • 15 dagen
  • Extra
  • Vergelijk
  • Kaarten
  • Dagkaart
  • Meer »
  • Info
  • Statistieken
  • Directe link
    Temp 6h Neerslag Wind  
 08:05     16:41    Daglengte: 8:36 Vandaag
19:00
0.8 mm
2
 08:06     16:41    Daglengte: 8:35 Morgen
01:00
2.8 mm
1
warningclass
07:00
6.8 mm
3
13:00
3.6 mm
2
19:00
-1°
 
1
 08:07     16:41    Daglengte: 8:34 Vrijdag 13 Dec
01:00
 
2
07:00
9.9 mm
4
13:00
16.2 mm
5
19:00
16.6 mm
4
 08:08     16:41    Daglengte: 8:33 Zaterdag 14 Dec
01:00
10.7 mm
3
07:00
20.2 mm
4
13:00
30.2 mm
4
Locatie info
Region: Thun
Latitude: 46.7570°N
Longitude: 7.6303°E
565 masl
Postcode: 3600
Temp/Neerslag /Baro Onweer/DauwpuntSneeuw
    Temp Baro 1h Neerslag Dauwpunt Wind UV BewolkingSneeuw  
 08:05     16:41    Daglengte: 8:36 Vandaag
18:00
Voelt als: 1.1°
1012.8 hPa
48%
-1.5°
2
Windvlaag: 0 km/h
91%2 cm
19:00
Voelt als: 0.4°
1013.1 hPa 0.8 mm
82%
-0.8°
2
Windvlaag: 0.3 km/h
91%2 cm
20:00
Voelt als: 0.4°
1012.9 hPa 0.9 mm
82%
-0.3°
2
Windvlaag: -0.4 km/h
91%2 cm
21:00
Voelt als: 0.2°
1012.5 hPa 0.7 mm
82%
-0.0°
2
Windvlaag: -0.4 km/h
91%2 cm
22:00
Voelt als: 0.1°
1011.9 hPa 0.4 mm
82%
0.1°
1
Windvlaag: -0.2 km/h
91%2 cm
23:00
Voelt als: 0.6°
1011.2 hPa 0.4 mm
81%
0.2°
1
Windvlaag: -0.2 km/h
90%2 cm
 08:06     16:41    Daglengte: 8:35 Morgen
00:00
Voelt als: 0.3°
1010.8 hPa 0.4 mm
75%
0.2°
1
Windvlaag: -0.2 km/h
89%2 cm
01:00
Voelt als: 0.2°
1010.2 hPa
66%
-0.2°
1
Windvlaag: 0.1 km/h
89%2 cm
02:00
Voelt als: -0.8°
1009.8 hPa
30%
-0.3°
2
Windvlaag: 0.1 km/h
88%2 cm
03:00
Voelt als: -0.6°
1009.1 hPa
26%
-0.5°
1
Windvlaag: -0 km/h
89%2 cm
04:00
Voelt als: -0.1°
1008.9 hPa 1.6 mm
20%
-0.4°
1
Windvlaag: -0.1 km/h
89%5 cm warningclass
05:00
Voelt als: -1.3°
1009.0 hPa 2.1 mm
68%
-0.9°
2
Windvlaag: -0.8 km/h
87%5 cm warningclass
06:00
Voelt als: -1.5°
1009.4 hPa 1.4 mm
82%
-0.9°
2
Windvlaag: 0.6 km/h
86%5 cm
07:00
Voelt als: -1.8°
1009.8 hPa 1.7 mm
82%
-0.9°
3
Windvlaag: 0.6 km/h
57%5 cm
08:00
Voelt als: -2.0°
1010.3 hPa 1.8 mm
82%
-1.2°
3
Windvlaag: 0.9 km/h
57%6 cm warningclass
09:00
Voelt als: -1.2°
1010.6 hPa 1.8 mm
82%
-1.5°
2
Windvlaag: 0.7 km/h
36%6 cm warningclass
10:00
Voelt als: -0.7°
1010.5 hPa
82%
-2.3°
2
Windvlaag: -1 km/h
47%6 cm
11:00
Voelt als: 0.2°
1010.0 hPa
80%
-2.9°
2
Windvlaag: -1.2 km/h
14%6 cm
12:00
Voelt als: 0.7°
1009.0 hPa
68%
-3.7°
2
Windvlaag: -0.1 km/h
16%6 cm
13:00
Voelt als: 1.3°
1008.4 hPa
21%
-4.3°
2
Windvlaag: 0.2 km/h
12%6 cm
14:00
Voelt als: 2.0°
1007.7 hPa
14%
-5.2°
2
Windvlaag: -0 km/h
6%6 cm
15:00
Voelt als: 2.1°
1006.6 hPa
14%
-5.4°
2
Windvlaag: -0.4 km/h
6%5 cm
16:00
Voelt als: 0.6°
1005.7 hPa
14%
-5.0°
2
Windvlaag: -0.4 km/h
4%5 cm
17:00
Voelt als: 0.1°
1004.8 hPa
14%
-5.3°
1
Windvlaag: -0 km/h
35%5 cm
18:00
-0°
Voelt als: -1.3°
1003.7 hPa
14%
-5.8°
1
Windvlaag: 0.7 km/h
6%6 cm
19:00
-1°
Voelt als: -2.2°
1002.4 hPa
14%
-6.1°
1
Windvlaag: 1.4 km/h
0%6 cm
20:00
-1°
Voelt als: -2.8°
1000.7 hPa
14%
-6.9°
1
Windvlaag: 1.6 km/h
18%6 cm
21:00
-1°
Voelt als: -2.5°
998.9 hPa
14%
-7.5°
1
Windvlaag: 0.9 km/h
30%6 cm
22:00
-1°
Voelt als: -1.9°
997.2 hPa
14%
-7.0°
1
Windvlaag: 1.1 km/h
72%6 cm
23:00
Voelt als: -1.2°
995.6 hPa
14%
-6.5°
1
Windvlaag: 1.4 km/h
85%6 cm
 08:07     16:41    Daglengte: 8:34 Vrijdag 13 Dec
00:00
Voelt als: -1.4°
994.1 hPa
14%
-5.1°
2
Windvlaag: 1.3 km/h
90%5 cm
01:00
Voelt als: -0.5°
992.5 hPa
14%
-3.6°
2
Windvlaag: 1.2 km/h
88%5 cm
02:00
Voelt als: -1.1°
991.0 hPa
18%
-3.6°
2
Windvlaag: 1.9 km/h
90%5 cm
03:00
Voelt als: 0.0°
988.8 hPa 1.8 mm
75%
-3.0°
2
Windvlaag: 2.2 km/h
82%5 cm
04:00
Voelt als: 0.1°
986.8 hPa 1.9 mm
82%
-3.1°
2
Windvlaag: 0.6 km/h
88%5 cm
05:00
Voelt als: -0.8°
985.5 hPa 2.1 mm
82%
-2.0°
3
Windvlaag: 1.6 km/h
88%5 cm
06:00
Voelt als: -0.4°
984.5 hPa 2.4 mm
82%
-0.4°
4
Windvlaag: 0.5 km/h
89%5 cm
07:00
Voelt als: -0.2°
983.7 hPa 1.8 mm
82%
-0.9°
4
Windvlaag: -1.5 km/h
86%5 cm
08:00
Voelt als: 1.0°
983.3 hPa 2.5 mm
82%
0.2°
2
Windvlaag: 0.8 km/h
88%5 cm
09:00
Voelt als: 0.4°
983.6 hPa 3.2 mm
82%
1.4°
5
Windvlaag: 8.1 km/h
90%5 cm
10:00
Voelt als: 0.9°
984.9 hPa 3.2 mm
82%
1.6°
7
Windvlaag: 5.6 km/h
69%5 cm
11:00
Voelt als: 0.7°
986.4 hPa 2.5 mm
82%
1.8°
7
Windvlaag: 3 km/h
82%5 cm
12:00
Voelt als: 0.5°
987.1 hPa 2.4 mm
82%
0.8°
6
Windvlaag: 0.4 km/h
82%5 cm
13:00
Voelt als: 0.5°
987.8 hPa 2.4 mm
81%
1.4°
5
Windvlaag: 1.5 km/h
89%6 cm
14:00
Voelt als: 0.1°
989.0 hPa 2.5 mm
81%
0.9°
5
Windvlaag: 2 km/h
78%6 cm
15:00
Voelt als: -0.5°
990.4 hPa 2.6 mm
82%
-0.2°
6
Windvlaag: 1.1 km/h
73%6 cm
16:00
Voelt als: -1.4°
992.1 hPa 2.6 mm
100%
-0.6°
5
Windvlaag: 0.2 km/h
70%6 cm
17:00
Voelt als: -2.0°
993.3 hPa 3.5 mm
100%
-0.4°
4
Windvlaag: 0.2 km/h
94%6 cm
18:00
Voelt als: -1.7°
994.2 hPa 2.7 mm
100%
-0.4°
5
Windvlaag: -0.1 km/h
93%6 cm
19:00
Voelt als: -1.4°
995.4 hPa 2.7 mm
100%
0.2°
4
Windvlaag: 0.2 km/h
76%6 cm
20:00
Voelt als: -0.9°
996.2 hPa 3.6 mm
92%
0.3°
4
Windvlaag: 0.4 km/h
68%6 cm
21:00
Voelt als: -0.6°
996.9 hPa 3.6 mm
92%
0.1°
3
Windvlaag: 1.3 km/h
80%6 cm
22:00
Voelt als: -0.5°
997.6 hPa
88%
0.1°
3
Windvlaag: 2.1 km/h
88%6 cm
23:00
Voelt als: -0.5°
998.4 hPa
36%
0.1°
3
Windvlaag: 3.4 km/h
98%6 cm
 08:08     16:41    Daglengte: 8:33 Zaterdag 14 Dec
00:00
Voelt als: -0.5°
998.3 hPa
79%
0.3°
3
Windvlaag: 3.8 km/h
97%6 cm
01:00
Voelt als: -0.0°
997.0 hPa 3.5 mm
96%
0.2°
3
Windvlaag: 4 km/h
97%6 cm
02:00
Voelt als: -0.1°
997.4 hPa 4.0 mm
100%
0.0°
3
Windvlaag: 5.1 km/h
80%6 cm
03:00
Voelt als: 0.7°
996.9 hPa 2.9 mm
100%
0.6°
3
Windvlaag: 4.6 km/h
85%6 cm
04:00
Voelt als: 1.4°
996.5 hPa 3.9 mm
100%
1.3°
2
Windvlaag: 3.9 km/h
77%6 cm
05:00
Voelt als: 1.1°
995.8 hPa 2.7 mm
100%
1.3°
4
Windvlaag: 3.9 km/h
47%6 cm
06:00
Voelt als: 3.1°
995.5 hPa 3.7 mm
100%
1.6°
4
Windvlaag: 2.2 km/h
78%6 cm
07:00
Voelt als: 3.3°
997.4 hPa 3.1 mm
100%
2.6°
4
Windvlaag: 1.2 km/h
67%6 cm
08:00
Voelt als: 2.8°
999.4 hPa 3.9 mm
100%
2.5°
5
Windvlaag: 3.3 km/h
73%6 cm
09:00
Voelt als: 3.6°
1001.2 hPa 3.9 mm
100%
2.6°
5
Windvlaag: 4.5 km/h
70%6 cm
10:00
Voelt als: 4.2°
1002.0 hPa 3.8 mm
100%
2.4°
4
Windvlaag: 5.4 km/h
67%5 cm
11:00
Voelt als: 4.7°
1003.1 hPa 6.1 mm
99%
2.6°
4
Windvlaag: 4.7 km/h
74%5 cm
12:00
Voelt als: 4.9°
1004.5 hPa 6.2 mm
100%
2.8°
4
Windvlaag: 5.3 km/h
82%5 cm
13:00
Voelt als: 5.6°
1005.6 hPa 6.3 mm
98%
2.9°
4
Windvlaag: 2.4 km/h
85%5 cm
14:00
Voelt als: 5.8°
1005.0 hPa 6.4 mm
99%
3.2°
3
Windvlaag: 12.5 km/h
80%5 cm
15:00
Voelt als: 5.3°
1006.1 hPa 6.5 mm
100%
3.1°
4
Windvlaag: 11.9 km/h
73%4 cm
16:00
Voelt als: 5.2°
1006.9 hPa 6.5 mm
96%
3.1°
3
Windvlaag: 11.9 km/h
76%4 cm
17:00
Voelt als: 5.0°
1007.6 hPa 6.6 mm
88%
3.1°
3
Windvlaag: 12.8 km/h
53%4 cm
Temp/Neerslag /Baro Onweer/DauwpuntSneeuw
    Temp Baro Neerslag Dauwpunt Wind BewolkingSneeuw  
 08:05     16:41    Daglengte: 8:36 Vandaag
19:00
Voelt als: 0.4°
1013.1 hPa 0.8 mm -0.8°
2
91%2 cm
22:00
Voelt als: 0.1°
1011.9 hPa 2.0 mm 0.1°
1
91%2 cm
 08:06     16:41    Daglengte: 8:35 Morgen
01:00
Voelt als: 0.2°
1010.2 hPa 0.8 mm -0.2°
1
89%2 cm warningclass
04:00
Voelt als: -0.1°
1008.9 hPa 1.6 mm -0.4°
1
89%5 cm warningclass
07:00
Voelt als: -1.8°
1009.8 hPa 5.2 mm -0.9°
3
57%5 cm
10:00
Voelt als: -0.7°
1010.5 hPa 3.6 mm -2.3°
2
47%6 cm
13:00
Voelt als: 1.3°
1008.4 hPa   -4.3°
2
12%6 cm
16:00
Voelt als: 0.6°
1005.7 hPa   -5.0°
2
4%5 cm
19:00
-1°
Voelt als: -2.2°
1002.4 hPa   -6.1°
1
0%6 cm
22:00
-1°
Voelt als: -1.9°
997.2 hPa   -7.0°
1
72%6 cm
 08:07     16:41    Daglengte: 8:34 Vrijdag 13 Dec
01:00
Voelt als: -0.5°
992.5 hPa   -3.6°
2
88%5 cm
04:00
Voelt als: 0.1°
986.8 hPa 3.7 mm -3.1°
2
88%5 cm
07:00
Voelt als: -0.2°
983.7 hPa 6.2 mm -0.9°
4
86%5 cm
10:00
Voelt als: 0.9°
984.9 hPa 8.9 mm 1.6°
7
69%5 cm
13:00
Voelt als: 0.5°
987.8 hPa 7.3 mm 1.4°
5
89%6 cm
16:00
Voelt als: -1.4°
992.1 hPa 7.7 mm -0.6°
5
70%6 cm
19:00
Voelt als: -1.4°
995.4 hPa 9.0 mm 0.2°
4
76%6 cm
22:00
Voelt als: -0.5°
997.6 hPa 7.2 mm 0.1°
3
88%6 cm
 08:08     16:41    Daglengte: 8:33 Zaterdag 14 Dec
01:00
Voelt als: -0.0°
997.0 hPa 3.5 mm 0.2°
3
97%6 cm
04:00
Voelt als: 1.4°
996.5 hPa 10.7 mm 1.3°
2
77%6 cm
07:00
Voelt als: 3.3°
997.4 hPa 9.5 mm 2.6°
4
67%6 cm
10:00
Voelt als: 4.2°
1002.0 hPa 11.6 mm 2.4°
4
67%5 cm
13:00
Voelt als: 5.6°
1005.6 hPa 18.6 mm 2.9°
4
85%5 cm
16:00
Voelt als: 5.2°
1006.9 hPa 19.4 mm 3.1°
3
76%4 cm
19:00
Voelt als: 5.2°
1008.9 hPa 19.8 mm 3.1°
2
41%4 cm
22:00
Voelt als: 2.2°
1011.4 hPa 43.1 mm 0.7°
2
61%
 08:09     16:41    Daglengte: 8:32 Zondag 15 Dec
01:00
Voelt als: 1.4°
1011.4 hPa 43.1 mm -0.1°
1
78%
04:00
Voelt als: 2.8°
1010.5 hPa 43.1 mm 0.6°
1
81%
07:00
Voelt als: 4.2°
1009.7 hPa 43.1 mm 1.3°
1
84%
10:00
Voelt als: 7.8°
1009.6 hPa 43.3 mm 3.9°
1
46%
13:00
11°
1009.5 hPa 43.4 mm 6.5°
1
9%
16:00
Voelt als: 7.0°
1010.1 hPa 43.9 mm 3.9°
1
13%
19:00
Voelt als: 2.8°
1010.7 hPa 43.9 mm 1.0°
1
17%
22:00
Voelt als: 0.8°
1012.1 hPa 43.9 mm -1.0°
1
23% warningclass
 08:10     16:42    Daglengte: 8:32 Maandag 16 Dec
01:00
-0°
Voelt als: -1.1°
1013.3 hPa 43.9 mm -2.8°
1
30% warningclass
04:00
-1°
Voelt als: -1.6°
1013.3 hPa 43.9 mm -3.1°
1
27% warningclass
07:00
-1°
Voelt als: -2.1°
1013.2 hPa 43.9 mm -3.5°
1
24% warningclass
10:00
1012.0 hPa 43.9 mm -0.0°
1
24%
13:00
10°
1010.6 hPa 43.9 mm 3.0°
0
24%
16:00
Voelt als: 6.5°
1009.3 hPa 43.9 mm 2.0°
1
46%
19:00
Voelt als: 2.3°
1007.9 hPa 43.9 mm 0.7°
2
68%
22:00
Voelt als: 2.8°
1007.3 hPa 43.9 mm 0.9°
2
79%
 08:10     16:42    Daglengte: 8:32 Dinsdag 17 Dec
01:00
Voelt als: 3.4°
1006.7 hPa 43.9 mm 1.3°
1
90%
04:00
Voelt als: 3.7°
1006.0 hPa 43.9 mm 1.7°
1
90%
07:00
Voelt als: 4.1°
1005.3 hPa 43.9 mm 2.0°
1
91%
10:00
1006.4 hPa 43.9 mm 3.6°
1
91%
13:00
Voelt als: 7.7°
1007.3 hPa 43.9 mm 5.5°
1
92%
16:00
Voelt als: 6.8°
1007.5 hPa 43.9 mm 4.1°
1
91%
19:00
Voelt als: 5.9°
1007.9 hPa 43.9 mm 2.6°
2
90%
22:00
Voelt als: 4.1°
1009.3 hPa 43.9 mm 2.1°
2
91%
 08:11     16:42    Daglengte: 8:31 Woensdag 18 Dec
01:00
Voelt als: 2.6°
1010.6 hPa 43.9 mm 1.5°
1
92%
04:00
Voelt als: 3.1°
1012.1 hPa 43.9 mm 2.1°
1
92%
07:00
Voelt als: 3.5°
1013.6 hPa 43.9 mm 2.6°
1
92%
10:00
Voelt als: 6.5°
1014.2 hPa 43.9 mm 5.1°
1
88%
13:00
10°
Voelt als: 9.5°
1014.7 hPa 43.9 mm 7.5°
1
85%
16:00
Voelt als: 6.8°
1014.8 hPa   5.5°
1
62%
19:00
Voelt als: 4.3°
1015.1 hPa 87.9 mm 3.4°
1
39%
 08:12     16:43    Daglengte: 8:31 Donderdag 19 Dec
01:00
1014.7 hPa 87.9 mm -0.2°
0
2%
07:00
Voelt als: 1.8°
1013.5 hPa 87.9 mm -0.4°
1
75%
13:00
Voelt als: 8.2°
1009.4 hPa 87.9 mm 5.6°
0
92%
19:00
Voelt als: 4.0°
1008.2 hPa 87.9 mm 1.5°
1
77%
 08:12     16:43    Daglengte: 8:31 Vrijdag 20 Dec
01:00
1010.6 hPa 87.9 mm -2.3°
0
26% warningclass
07:00
-1°
Voelt als: -2.1°
1009.4 hPa 87.9 mm -3.2°
1
8% warningclass
13:00
Voelt als: 7.8°
1007.6 hPa 87.9 mm 2.5°
1
19%
19:00
1005.1 hPa 87.9 mm 0.2°
1
92%
 08:13     16:43    Daglengte: 8:30 Zaterdag 21 Dec
01:00
Voelt als: 2.2°
1018.7 hPa 87.9 mm -1.6°
2
0%
07:00
Voelt als: 1.5°
1017.3 hPa 87.9 mm -2.4°
2
0%
13:00
11°
1017.1 hPa 0.3 mm 7.4°
2
55%
19:00
Voelt als: 5.5°
1018.0 hPa 1.4 mm 4.7°
2
59%
 08:13     16:44    Daglengte: 8:31 Zondag 22 Dec
01:00
Voelt als: 4.6°
1018.7 hPa 2.2 mm 3.8°
2
62%
07:00
Voelt als: 4.2°
1018.5 hPa 1.9 mm 2.9°
1
63%
13:00
Voelt als: 8.6°
1017.7 hPa 0.9 mm 5.9°
1
60%
19:00
Voelt als: 3.6°
1018.5 hPa 0.8 mm 2.7°
1
65%
 08:14     16:44    Daglengte: 8:30 Maandag 23 Dec
01:00
Voelt als: 2.6°
1018.8 hPa 1.1 mm 1.8°
1
62%
07:00
Voelt als: 1.9°
1018.4 hPa 1.0 mm 1.0°
1
63%
13:00
1017.0 hPa 1.0 mm 4.6°
1
59%
19:00
1018.1 hPa 0.7 mm 1.8°
1
60%
 08:14     16:45    Daglengte: 8:31 Dinsdag 24 Dec
01:00
Voelt als: 0.9°
1018.6 hPa 0.4 mm 0.5°
1
50%
07:00
Voelt als: 1.0°
1019.0 hPa 0.5 mm 0.2°
1
55%
13:00
Voelt als: 6.7°
1017.8 hPa 0.2 mm 3.7°
1
47%
19:00
Voelt als: 1.1°
1019.2 hPa 0.5 mm 1.0°
1
57%
 08:14     16:46    Daglengte: 8:32 Woensdag 25 Dec
01:00
Voelt als: 0.2°
1020.1 hPa 0.5 mm 0.2°
2
53%
07:00
Voelt als: -0.3°
1020.2 hPa 0.4 mm -0.5°
2
48%
13:00
1019.0 hPa 1.1 mm 4.3°
1
47%
19:00
Voelt als: 1.9°
1019.5 hPa 1.0 mm 1.0°
1
48%
 08:15     16:46    Daglengte: 8:31 Donderdag 26 Dec
01:00
Voelt als: 0.5°
1019.7 hPa 0.6 mm 0.5°
2
46%
07:00
Voelt als: -0.0°
1018.6 hPa 0.7 mm 0.2°
2
52%
13:00
Voelt als: 6.4°
1017.2 hPa 1.4 mm 3.6°
1
65%
  CAPE Lifted Index Hail Supercell Tornado SRH 3km CL BTM PRES CL TOP PRES Swiss DWD icon SMHI TS
 08:05     16:41    Daglengte: 8:36 Vandaag
18:00 20 J/kg 7.8 K 0 % 0 % 0 % 0 m²/s² 0 0 8.13 61
19:00 15 J/kg 8.4 K 0 % 0 % 0 % 0 m²/s² 0 0 8.79 71
20:00 4 J/kg 8.6 K 0 % 0 % 0 % 0 m²/s² 0 0 8.99 73
21:00 0 J/kg 9.0 K 0 % 0 % 0 % 0 m²/s² 0 0 9.48 61
22:00 0 J/kg 9.4 K 0 % 0 % 0 % 0 m²/s² 0 0 9.94 61
23:00 0 J/kg 9.4 K 0 % 0 % 0 % 0 m²/s² 0 0 10.12 61
 08:06     16:41    Daglengte: 8:35 Morgen
00:00 0 J/kg 8.5 K 0 % 0 % 0 % 0 m²/s² 0 0 9.67 3
01:00 0 J/kg 6.7 K 0 % 0 % 0 % 0 m²/s² 0 0 8.05 3
02:00 0 J/kg 4.7 K 0 % 0 % 0 % 0 m²/s² 0 0 6.41 3
03:00 0 J/kg 1.6 K 0 % 0 % 0 % 0 m²/s² 0 0 1.9 3
04:00 0 J/kg 1.6 K 0 % 0 % 0 % 0 m²/s² 0 0 2.23 3
05:00 16 J/kg 2.7 K 0 % 0 % 0 % 0 m²/s² 0 0 3.93 3
06:00 0 J/kg 1.5 K 0 % 0 % 0 % 0 m²/s² 0 0 2.49 61
07:00 0 J/kg 1.1 K 0 % 0 % 0 % 0 m²/s² 0 0 1.79 61
08:00 3 J/kg 1.9 K 0 % 0 % 0 % 0 m²/s² 0 0 2.53 61
09:00 8 J/kg 2.9 K 0 % 0 % 0 % 0 m²/s² 0 0 3.77 61
10:00 20 J/kg 4.3 K 0 % 0 % 0 % 0 m²/s² 0 0 5.59 61
11:00 28 J/kg 5.7 K 0 % 0 % 0 % 0 m²/s² 0 0 7.08 2
12:00 17 J/kg 6.3 K 0 % 0 % 0 % 0 m²/s² 0 0 8.28 1
13:00 22 J/kg 7.4 K 0 % 0 % 0 % 0 m²/s² 0 0 9.92 2
14:00 10 J/kg 8.1 K 0 % 0 % 0 % 0 m²/s² 0 0 11.31 2
15:00 13 J/kg 7.9 K 0 % 0 % 0 % 0 m²/s² 0 0 11.59 1
16:00 0 J/kg 7.6 K 0 % 0 % 0 % 0 m²/s² 0 0 11.32 0
17:00 0 J/kg 6.4 K 0 % 0 % 0 % 0 m²/s² 0 0 9.31 0
18:00 0 J/kg 7.2 K 0 % 0 % 0 % 0 m²/s² 0 0 9.48 0
19:00 0 J/kg 7.2 K 0 % 0 % 0 % 0 m²/s² 0 0 8.97 0
20:00 0 J/kg 6.7 K 0 % 0 % 0 % 0 m²/s² 0 0 8.26 0
21:00 0 J/kg 5.3 K 0 % 0 % 0 % 0 m²/s² 0 0 6.5 1
22:00 0 J/kg 4.2 K 0 % 0 % 0 % 0 m²/s² 0 0 5.22 3
23:00 0 J/kg 3.8 K 0 % 0 % 0 % 0 m²/s² 0 0 4.13 3
 08:07     16:41    Daglengte: 8:34 Vrijdag 13 Dec
00:00 0 J/kg 2.5 K 0 % 0 % 0 % 0 m²/s² 0 0 2.71 3
01:00 0 J/kg 2.5 K 0 % 0 % 0 % 0 m²/s² 0 0 2.77 3
02:00 0 J/kg 0.7 K 0 % 0 % 0 % 0 m²/s² 0 0 0.94 3
03:00 0 J/kg 0.5 K 0 % 0 % 0 % 0 m²/s² 0 0 1.34 71
04:00 0 J/kg 0.8 K 0 % 0 % 0 % 0 m²/s² 0 0 1.19 71
05:00 0 J/kg 0.7 K 0 % 0 % 0 % 0 m²/s² 0 0 1.06 61
06:00 0 J/kg 0.3 K 0 % 0 % 0 % 0 m²/s² 0 0 0.9 61
07:00 8 J/kg 1.6 K 0 % 0 % 0 % 0 m²/s² 0 0 2.05 61
08:00 0 J/kg 0.7 K 0 % 0 % 0 % 0 m²/s² 0 0 2.53 61
09:00 53 J/kg 0.7 K 0 % 0 % 0 % 0 m²/s² 0 0 3.25 63
10:00 46 J/kg 3.0 K 0 % 0 % 0 % 0 m²/s² 0 0 5.31 61
11:00 146 J/kg 0.4 K 0 % 0 % 0 % 0 m²/s² 0 0 0.94 61
12:00 94 J/kg -0.2 K 0 % 0 % 0 % 0 m²/s² 0 0 1.24 61
13:00 3 J/kg -0.8 K 0 % 0 % 0 % 0 m²/s² 0 0 -0.23 3
14:00 272 J/kg -0.8 K 0 % 0 % 0 % 0 m²/s² 0 0 0.52 3
15:00 175 J/kg -1.0 K 0 % 0 % 0 % 0 m²/s² 0 0 -0.55 3
16:00 100 J/kg -0.1 K 0 % 0 % 0 % 0 m²/s² 0 0 1.19 3
17:00 14 J/kg -0.3 K 0 % 0 % 0 % 0 m²/s² 0 0 0.84 3
18:00 11 J/kg -0.5 K 0 % 0 % 0 % 0 m²/s² 0 0 -0.08 3
19:00 30 J/kg 0.2 K 0 % 0 % 0 % 0 m²/s² 0 0 1.55 1
20:00 17 J/kg 0.8 K 0 % 0 % 0 % 0 m²/s² 0 0 2.42 1
21:00 9 J/kg 1.8 K 0 % 0 % 0 % 0 m²/s² 0 0 2.4 0
22:00 14 J/kg 3.3 K 0 % 0 % 0 % 0 m²/s² 0 0 6.33 3
23:00 2 J/kg 4.3 K 0 % 0 % 0 % 0 m²/s² 0 0 6.88 3
 08:08     16:41    Daglengte: 8:33 Zaterdag 14 Dec
00:00 6 J/kg 5.4 K 0 % 0 % 0 % 0 m²/s² 0 0 8.01 3
01:00 12 J/kg 5.6 K 0 % 0 % 0 % 0 m²/s² 0 0 7.94 85
02:00 9 J/kg 6.4 K 0 % 0 % 0 % 0 m²/s² 0 0 9.67 61
03:00 3 J/kg 8.0 K 0 % 0 % 0 % 0 m²/s² 0 0 10.37 80
04:00 1 J/kg 8.1 K 0 % 0 % 0 % 0 m²/s² 0 0 8.97 80
05:00 0 J/kg 5.4 K 0 % 0 % 0 % 0 m²/s² 0 0 5.88 80
06:00 0 J/kg 3.4 K 0 % 0 % 0 % 0 m²/s² 0 0 3.61 1
07:00 0 J/kg 3.9 K 0 % 0 % 0 % 0 m²/s² 0 0 6.24 61
08:00 0 J/kg 5.2 K 0 % 0 % 0 % 0 m²/s² 0 0 7.09 3
09:00 0 J/kg 4.9 K 0 % 0 % 0 % 0 m²/s² 0 0 6.97 3
10:00 0 J/kg 4.6 K 0 % 0 % 0 % 0 m²/s² 0 0 6.1 2
11:00 7 J/kg 4.0 K 0 % 0 % 0 % 0 m²/s² 0 0 4.57 3
12:00 77 J/kg 3.8 K 0 % 0 % 0 % 0 m²/s² 0 0 5.09 3
13:00 81 J/kg 3.8 K 0 % 0 % 0 % 0 m²/s² 0 0 4.01 3
14:00 86 J/kg 3.1 K 0 % 0 % 0 % 0 m²/s² 0 0 3.31 3
15:00 79 J/kg 2.2 K 0 % 0 % 0 % 0 m²/s² 0 0 2.41 61
16:00 60 J/kg 1.8 K 0 % 0 % 0 % 0 m²/s² 0 0 2.25 3
17:00 40 J/kg 2.0 K 0 % 0 % 0 % 0 m²/s² 0 0 2.81 3
Temp Baro Wind Neerslag
  EWN Forecast EWN WRFDA DWD ICON FMI HIRLAM MET Norway GFS
 08:05     16:41    Daglengte: 8:36 Vandaag
19:00 2.2° 1013.1 hPa 1.8 m/s 0.8 mm 4.2° 1009.1 hPa 6.3 m/s 1.8 mm 1.0° 1014.3 hPa 0.3 m/s -0.6 mm 3.9° 1013.3 hPa 3.4 m/s 0.0 mm 2.1° 1012.9 hPa 0.5 m/s 3.3° 1012.2 hPa 0.9 m/s
22:00 1.5° 1011.9 hPa 1.4 m/s 2.0 mm 3.0° 1009.5 hPa 3.1 m/s 4.2 mm 0.9° 1012.5 hPa 1.1 m/s 2.3 mm 2.5° 1012.0 hPa 1.7 m/s 0.0 mm 1.1° 1012.0 hPa 0.7 m/s 3.1° 1011.9 hPa 1.5 m/s
 08:06     16:41    Daglengte: 8:35 Morgen
01:00 1.1° 1010.2 hPa 1.1 m/s 0.8 mm 2.4° 1007.5 hPa 3.5 m/s 4.3 mm 1.1° 1010.9 hPa 0.4 m/s 0.3 mm 1.8° 1010.1 hPa 1.1 m/s 0.0 mm 0.3° 1010.3 hPa 0.5 m/s 2.4° 1010.2 hPa 0.7 m/s
04:00 0.5° 1008.9 hPa 1.0 m/s 1.6 mm 1.1° 1005.5 hPa 3.3 m/s 10.1 mm 0.8° 1009.6 hPa 1.0 m/s 0.0 mm 0.9° 1009.2 hPa 0.5 m/s 0.0 mm -0.7° 1008.4 hPa 0.3 m/s 1.7° 1008.9 hPa 1.1 m/s
07:00 1.5° 1009.8 hPa 3.1 m/s 5.2 mm 1.6° 1006.5 hPa 4.4 m/s 20.6 mm 0.4° 1010.0 hPa 1.3 m/s 1.3 mm 2.8° 1009.7 hPa 5.9 m/s 0.0 mm 1.4° 1010.1 hPa 1.7 m/s 1.9° 1010.1 hPa 2.3 m/s
10:00 1.9° 1010.5 hPa 2.5 m/s 3.6 mm 2.1° 1007.3 hPa 3.8 m/s 23.1 mm 1.0° 1011.4 hPa 1.1 m/s 1.1 mm 2.5° 1010.6 hPa 4.2 m/s 0.0 mm 2.2° 1010.6 hPa 1.6 m/s 1.7° 1010.0 hPa 0.9 m/s
13:00 3.6° 1008.4 hPa 2.4 m/s 0.0 mm 2.4° 1006.6 hPa 3.0 m/s 24.0 mm 3.1° 1009.1 hPa 1.0 m/s 0.0 mm 4.0° 1008.5 hPa 4.9 m/s 0.0 mm 4.3° 1007.8 hPa 2.4 m/s 2.9° 1008.7 hPa 0.7 m/s
16:00 2.1° 1005.7 hPa 1.5 m/s 0.0 mm 1.0° 1002.9 hPa 3.5 m/s 24.8 mm 2.2° 1007.0 hPa 0.4 m/s 0.0 mm 3.3° 1006.1 hPa 1.8 m/s 0.0 mm 2.1° 1004.1 hPa 1.1 m/s 0.8° 1006.4 hPa 0.5 m/s
19:00 -1.0° 1002.4 hPa 1.1 m/s 0.0 mm -2.1° 998.5 hPa 3.5 m/s 25.1 mm -0.1° 1004.2 hPa 1.0 m/s 0.0 mm 1.1° 1003.0 hPa 1.0 m/s 0.0 mm -1.1° 1000.1 hPa 0.5 m/s -2.7° 1005.3 hPa 2.3 m/s
22:00 -0.6° 997.2 hPa 1.2 m/s 0.0 mm 1.2° 993.6 hPa 2.5 m/s 25.2 mm -0.6° 999.0 hPa 0.9 m/s 0.0 mm 2.4° 997.6 hPa 1.5 m/s 0.0 mm -0.8° 995.1 hPa 0.6 m/s -1.8° 1001.0 hPa 2.4 m/s
 08:07     16:41    Daglengte: 8:34 Vrijdag 13 Dec
01:00 1.2° 992.5 hPa 1.6 m/s 0.0 mm 4.5° 988.9 hPa 4.3 m/s 25.4 mm -0.0° 994.1 hPa 0.9 m/s 0.0 mm 7.5° 992.1 hPa 6.1 m/s 0.0 mm 0.6° 992.2 hPa 0.8 m/s 0.7° 997.7 hPa 2.1 m/s
04:00 2.2° 986.8 hPa 2.1 m/s 3.7 mm 5.1° 984.6 hPa 3.9 m/s 26.0 mm 1.4° 990.5 hPa 2.2 m/s 0.3 mm 8.1° 985.6 hPa 4.7 m/s 0.0 mm 1.6° 986.1 hPa 0.9 m/s 1.8° 993.3 hPa 3.1 m/s
07:00 3.3° 983.7 hPa 3.9 m/s 6.2 mm 5.7° 982.3 hPa 9.7 m/s 29.6 mm 1.9° 985.5 hPa 1.1 m/s 0.6 mm 9.0° 983.6 hPa 9.8 m/s 0.0 mm 2.4° 982.2 hPa 1.7 m/s 1.6° 990.6 hPa 2.7 m/s
10:00 5.3° 984.9 hPa 7.0 m/s 8.9 mm 4.6° 983.8 hPa 9.5 m/s 38.4 mm 5.4° 988.5 hPa 6.9 m/s 5.1 mm 5.8° 985.8 hPa 8.5 m/s 0.0 mm 3.5° 984.3 hPa 1.7 m/s 1.7° 990.3 hPa 2.1 m/s
13:00 4.2° 987.8 hPa 4.8 m/s 7.3 mm 1.0° 986.5 hPa 4.3 m/s 41.2 mm 4.5° 991.1 hPa 4.5 m/s 1.0 mm 4.9° 986.3 hPa 6.9 m/s 0.0 mm 3.8° 987.4 hPa 3.0 m/s 3.1° 991.2 hPa 2.0 m/s
16:00 2.7° 992.1 hPa 4.8 m/s 7.7 mm 2.3° 989.4 hPa 7.0 m/s 47.9 mm 3.4° 993.3 hPa 4.6 m/s 0.8 mm 2.5° 992.0 hPa 4.1 m/s 1.5° 993.7 hPa 2.3 m/s
19:00 2.5° 995.4 hPa 4.2 m/s 9.0 mm 2.4° 991.8 hPa 3.9 m/s 49.5 mm 2.4° 997.0 hPa 4.3 m/s 0.9 mm 2.2° 995.1 hPa 3.1 m/s 0.7° 998.7 hPa 2.4 m/s
22:00 2.5° 997.6 hPa 3.0 m/s 7.2 mm 2.9° 994.5 hPa 5.8 m/s 50.5 mm 2.0° 999.1 hPa 0.6 m/s 0.3 mm 2.6° 997.6 hPa 3.1 m/s 0.4° 1001.8 hPa 2.5 m/s
 08:08     16:41    Daglengte: 8:33 Zaterdag 14 Dec
01:00 2.7° 997.0 hPa 2.7 m/s 3.5 mm 3.4° 997.0 hPa 5.7 m/s 51.3 mm 1.4° 996.8 hPa 2.6 m/s 0.1 mm 2.8° 999.0 hPa 1.9 m/s -0.2° 1004.5 hPa 2.5 m/s
04:00 3.6° 996.5 hPa 2.3 m/s 10.7 mm 2.4° 999.4 hPa 4.3 m/s 51.8 mm 6.5° 994.8 hPa 0.9 m/s 2.2 mm 2.1° 997.1 hPa 1.3 m/s 0.7° 1005.9 hPa 3.0 m/s
07:00 6.1° 997.4 hPa 3.9 m/s 9.5 mm 4.4° 999.4 hPa 2.9 m/s 52.3 mm 7.8° 997.8 hPa 6.0 m/s 1.2 mm 5.6° 995.1 hPa 2.1 m/s 3.1° 1007.0 hPa 3.7 m/s
10:00 6.8° 1002.0 hPa 3.8 m/s 11.6 mm 8.1° 1001.6 hPa 7.3 m/s 53.4 mm 6.9° 1003.2 hPa 2.9 m/s 1.1 mm 6.8° 1000.8 hPa 3.0 m/s 5.2° 1007.3 hPa 3.4 m/s
13:00 8.0° 1005.6 hPa 4.0 m/s 18.6 mm 9.8° 1002.6 hPa 6.2 m/s 54.4 mm 8.0° 1002.9 hPa 1.9 m/s 0.7 mm 7.9° 1006.4 hPa 3.8 m/s 6.2° 1006.9 hPa 2.9 m/s
16:00 7.3° 1006.9 hPa 3.2 m/s 19.4 mm 9.2° 1003.7 hPa 4.8 m/s 56.9 mm 7.8° 1005.3 hPa 3.1 m/s 0.7 mm 6.6° 1008.9 hPa 2.9 m/s 5.9° 1007.8 hPa 2.8 m/s
19:00 6.7° 1008.9 hPa 2.2 m/s 19.8 mm 8.3° 1004.8 hPa 4.0 m/s 58.1 mm 8.0° 1006.9 hPa 1.8 m/s 0.6 mm 5.3° 1011.4 hPa 2.0 m/s 6.0° 1009.1 hPa 2.7 m/s
22:00 3.6° 1011.4 hPa 1.6 m/s 43.1 mm 3.4° 1011.5 hPa 1.5 m/s 6.2° 1010.7 hPa 2.5 m/s 43.1 mm
 08:09     16:41    Daglengte: 8:32 Zondag 15 Dec
01:00 2.6° 1011.4 hPa 1.4 m/s 43.1 mm 2.4° 1011.5 hPa 1.3 m/s 5.1° 1010.6 hPa 2.6 m/s 43.1 mm
04:00 3.8° 1010.5 hPa 1.3 m/s 43.1 mm 3.7° 1010.5 hPa 1.2 m/s 5.1° 1010.9 hPa 2.5 m/s 43.1 mm
07:00 4.9° 1009.7 hPa 1.3 m/s 43.1 mm 4.9° 1009.5 hPa 1.1 m/s 4.9° 1012.1 hPa 3.1 m/s 43.1 mm
10:00 8.0° 1009.6 hPa 1.2 m/s 43.3 mm 8.2° 1009.3 hPa 1.1 m/s 5.9° 1013.1 hPa 2.3 m/s 43.3 mm
13:00 11.2° 1009.5 hPa 1.1 m/s 43.4 mm 11.5° 1009.1 hPa 1.0 m/s 7.7° 1013.6 hPa 2.0 m/s 43.4 mm
16:00 7.0° 1010.1 hPa 0.9 m/s 43.9 mm 7.0° 1009.7 hPa 0.8 m/s 6.5° 1015.2 hPa 1.5 m/s 43.9 mm
19:00 2.8° 1010.7 hPa 0.8 m/s 43.9 mm 2.6° 1010.2 hPa 0.7 m/s 5.1° 1016.4 hPa 1.6 m/s 43.9 mm
22:00 1.1° 1012.1 hPa 0.8 m/s 43.9 mm 0.8° 1011.6 hPa 0.8 m/s 4.7° 1017.2 hPa 1.9 m/s 43.9 mm
 08:10     16:42    Daglengte: 8:32 Maandag 16 Dec
01:00 -0.5° 1013.3 hPa 0.9 m/s 43.9 mm -1.0° 1013.0 hPa 0.8 m/s 5.0° 1017.1 hPa 1.8 m/s 43.9 mm
04:00 -0.7° 1013.3 hPa 1.0 m/s 43.9 mm -1.2° 1013.0 hPa 0.9 m/s 4.7° 1016.3 hPa 2.2 m/s 43.9 mm
07:00 -0.9° 1013.2 hPa 1.1 m/s 43.9 mm -1.4° 1013.0 hPa 1.0 m/s 4.1° 1015.7 hPa 2.4 m/s 43.9 mm
10:00 4.4° 1012.0 hPa 0.8 m/s 43.9 mm 4.2° 1011.6 hPa 0.7 m/s 6.1° 1015.9 hPa 2.3 m/s 43.9 mm
13:00 9.7° 1010.6 hPa 0.4 m/s 43.9 mm 9.8° 1010.3 hPa 0.4 m/s 8.3° 1013.8 hPa 1.0 m/s 43.9 mm
16:00 6.7° 1009.3 hPa 1.1 m/s 43.9 mm 6.8° 1008.9 hPa 1.0 m/s 6.3° 1013.2 hPa 1.8 m/s 43.9 mm
19:00 3.8° 1007.9 hPa 1.7 m/s 43.9 mm 3.7° 1007.5 hPa 1.6 m/s 4.8° 1012.9 hPa 2.6 m/s 43.9 mm
22:00 4.1° 1007.3 hPa 1.6 m/s 43.9 mm 4.0° 1006.9 hPa 1.5 m/s 5.2° 1012.3 hPa 2.9 m/s 43.9 mm
 08:10     16:42    Daglengte: 8:32 Dinsdag 17 Dec
01:00 4.4° 1006.7 hPa 1.4 m/s 43.9 mm 4.3° 1006.3 hPa 1.3 m/s 6.1° 1010.9 hPa 2.6 m/s 43.9 mm
04:00 4.4° 1006.0 hPa 1.2 m/s 43.9 mm 4.2° 1005.6 hPa 1.1 m/s 6.2° 1010.0 hPa 2.7 m/s 43.9 mm
07:00 4.4° 1005.3 hPa 0.9 m/s 43.9 mm 4.2° 1004.9 hPa 0.8 m/s 6.0° 1009.5 hPa 2.5 m/s 43.9 mm
10:00 6.0° 1006.4 hPa 0.9 m/s 43.9 mm 5.9° 1006.0 hPa 0.8 m/s 7.0° 1009.8 hPa 2.1 m/s 43.9 mm
13:00 7.7° 1007.3 hPa 0.8 m/s 43.9 mm 7.6° 1007.2 hPa 0.7 m/s 9.0° 1008.3 hPa 1.8 m/s 43.9 mm
16:00 7.4° 1007.5 hPa 1.4 m/s 43.9 mm 7.4° 1007.4 hPa 1.5 m/s 7.4° 1009.7 hPa 1.3 m/s 43.9 mm
19:00 7.2° 1007.9 hPa 2.1 m/s 43.9 mm 7.3° 1007.5 hPa 2.2 m/s 6.4° 1012.0 hPa 1.1 m/s 43.9 mm
22:00 5.3° 1009.3 hPa 1.6 m/s 43.9 mm 5.3° 1008.8 hPa 1.7 m/s 4.9° 1015.1 hPa 1.1 m/s 43.9 mm
 08:11     16:42    Daglengte: 8:31 Woensdag 18 Dec
01:00 3.3° 1010.6 hPa 1.1 m/s 43.9 mm 3.3° 1010.0 hPa 1.1 m/s 3.7° 1017.5 hPa 1.3 m/s 43.9 mm
04:00 3.7° 1012.1 hPa 1.1 m/s 43.9 mm 3.6° 1011.5 hPa 1.1 m/s 4.0° 1019.3 hPa 1.7 m/s 43.9 mm
07:00 4.0° 1013.6 hPa 1.0 m/s 43.9 mm 4.0° 1012.9 hPa 1.0 m/s 4.0° 1020.8 hPa 1.6 m/s 43.9 mm
10:00 6.8° 1014.2 hPa 1.2 m/s 43.9 mm 6.8° 1013.4 hPa 1.2 m/s 6.5° 1022.9 hPa 0.7 m/s 43.9 mm
13:00 9.7° 1014.7 hPa 1.3 m/s 43.9 mm 9.7° 1013.9 hPa 1.4 m/s 9.1° 1023.3 hPa 0.4 m/s 43.9 mm
16:00 7.1° 1014.8 hPa 1.1 m/s 43.9 mm 7.1° 1014.0 hPa 1.1 m/s 6.7° 1024.2 hPa 0.9 m/s 43.9 mm
19:00 4.5° 1015.1 hPa 0.9 m/s 43.9 mm 4.5° 1014.1 hPa 0.9 m/s 4.4° 1025.8 hPa 1.1 m/s 43.9 mm
 08:12     16:43    Daglengte: 8:31 Donderdag 19 Dec
01:00 1.5° 1014.7 hPa 0.3 m/s 43.9 mm 1.2° 1013.6 hPa 0.2 m/s 4.5° 1027.2 hPa 1.8 m/s 43.9 mm
07:00 1.8° 1013.5 hPa 0.6 m/s 43.9 mm 1.6° 1012.3 hPa 0.5 m/s 4.5° 1026.6 hPa 2.0 m/s 43.9 mm
13:00 8.2° 1009.4 hPa 0.4 m/s 43.9 mm 8.0° 1008.0 hPa 0.4 m/s 10.7° 1025.3 hPa 0.4 m/s 43.9 mm
19:00 4.8° 1008.2 hPa 1.2 m/s 43.9 mm 4.7° 1006.7 hPa 1.2 m/s 5.4° 1024.9 hPa 1.8 m/s 43.9 mm
 08:12     16:43    Daglengte: 8:31 Vrijdag 20 Dec
01:00 0.2° 1010.6 hPa 0.5 m/s 43.9 mm -0.2° 1009.5 hPa 0.4 m/s 4.6° 1023.3 hPa 1.6 m/s 43.9 mm
07:00 -1.5° 1009.4 hPa 0.9 m/s 43.9 mm -2.0° 1008.3 hPa 0.8 m/s 4.4° 1021.9 hPa 1.8 m/s 43.9 mm
13:00 7.8° 1007.6 hPa 0.7 m/s 43.9 mm 7.6° 1006.5 hPa 0.7 m/s 10.5° 1019.5 hPa 0.5 m/s 43.9 mm
19:00 2.8° 1005.1 hPa 0.7 m/s 43.9 mm 2.6° 1003.8 hPa 0.6 m/s 4.8° 1019.2 hPa 1.9 m/s 43.9 mm
 08:13     16:43    Daglengte: 8:30 Zaterdag 21 Dec
01:00 3.7° 1018.7 hPa 1.8 m/s 43.9 mm 3.7° 1018.7 hPa 1.8 m/s 43.9 mm
07:00 3.0° 1017.3 hPa 1.6 m/s 43.9 mm 3.0° 1017.3 hPa 1.6 m/s 43.9 mm
13:00 11.1° 1017.1 hPa 1.7 m/s 0.3 mm
19:00 6.4° 1018.0 hPa 1.5 m/s 1.4 mm
 08:13     16:44    Daglengte: 8:31 Zondag 22 Dec
01:00 5.7° 1018.7 hPa 1.6 m/s 2.2 mm
07:00 4.8° 1018.5 hPa 1.2 m/s 1.9 mm
13:00 8.8° 1017.7 hPa 1.2 m/s 0.9 mm
19:00 4.3° 1018.5 hPa 1.1 m/s 0.8 mm
 08:14     16:44    Daglengte: 8:30 Maandag 23 Dec
01:00 3.7° 1018.8 hPa 1.4 m/s 1.1 mm
07:00 2.9° 1018.4 hPa 1.3 m/s 1.0 mm
13:00 7.5° 1017.0 hPa 0.5 m/s 1.0 mm
19:00 3.3° 1018.1 hPa 0.8 m/s 0.7 mm
 08:14     16:45    Daglengte: 8:31 Dinsdag 24 Dec
01:00 2.2° 1018.6 hPa 1.4 m/s 0.4 mm
07:00 1.9° 1019.0 hPa 1.1 m/s 0.5 mm
13:00 6.7° 1017.8 hPa 0.8 m/s 0.2 mm
19:00 2.5° 1019.2 hPa 1.5 m/s 0.5 mm
 08:14     16:46    Daglengte: 8:32 Woensdag 25 Dec
01:00 1.9° 1020.1 hPa 1.6 m/s 0.5 mm
07:00 1.3° 1020.2 hPa 1.5 m/s 0.4 mm
13:00 7.2° 1019.0 hPa 0.6 m/s 1.1 mm
19:00 2.3° 1019.5 hPa 0.9 m/s 1.0 mm
 08:15     16:46    Daglengte: 8:31 Donderdag 26 Dec
01:00 2.0° 1019.7 hPa 1.5 m/s 0.6 mm
07:00 1.8° 1018.6 hPa 1.8 m/s 0.7 mm
13:00 6.4° 1017.2 hPa 0.8 m/s 1.4 mm
FMI Hirlam - 7.5 km EWN WRFDA - 12 km DWD ICON - 7 km GFS - 25 km Basiskaart






























































Updatetijd (Europe/Amsterdam) Resolutie Lengte Stap
FMI Hirlam 18:00, 00:00, 06:00, 12:00 7.5 km 49h 1h
EWN WRFDA 14:30, 20:30, 02:30, 08:30 12 km 73h 1h
DWD ICON 10:45, 16:45, 22:45, 04:45 7 km 75h 1h
GFS 13:30, 19:30, 01:30, 07:30 25 km 237h 3h
30+ mm
25-30 mm
20-25 mm
15-20 mm
10-15 mm
6-10 mm
4-6 mm
2-4 mm
1-2 mm
0.5-1 mm
0.2-0.5 mm
0.1-0.2 mm
30+ mm
25-30 mm
20-25 mm
15-20 mm
10-15 mm
6-10 mm
4-6 mm
2-4 mm
1-2 mm
0.5-1 mm
0.2-0.5 mm
0.1-0.2 mm
Sneeuwval
Natte sneeuw
Hagel
Vorst
30+ mm
25-30 mm
20-25 mm
15-20 mm
10-15 mm
6-10 mm
4-6 mm
2-4 mm
1-2 mm
0.5-1 mm
0.2-0.5 mm
0.1-0.2 mm
Sneeuwval
Natte sneeuw
Hagel
Vorst
Onweer
50 mm
40 mm
30 mm
26 mm
22 mm
18 mm
14 mm
10 mm
9 mm
8 mm
7 mm
6 mm
5 mm
4.5 mm
4 mm
3.5 mm
3 mm
2.5 mm
2 mm
1.5 mm
1 mm
0.8 mm
0.6 mm
0.4 mm
0.2 mm
0.05 mm
35°
30°
25°
20°
15°
10°
-5°
-10°
-15°
-20°
-25°
-30°
-35°
120> km/h
105 km/h
90 km/h
75 km/h
60 km/h
50 km/h
40 km/h
30 km/h
20 km/h
10 km/h
0 km/h
2600 J/kg
2400 J/kg
2200 J/kg
2000 J/kg
1800 J/kg
1600 J/kg
1400 J/kg
1200 J/kg
1000 J/kg
800 J/kg
600 J/kg
400 J/kg
200 J/kg
70 dBZ
65 dBZ
60 dBZ
55 dBZ
50 dBZ
45 dBZ
40 dBZ
35 dBZ
30 dBZ
25 dBZ
20 dBZ
15 dBZ
10 dBZ
5 dBZ
-1 K
-2 K
-3 K
-4 K
-5 K
-6 K
-7 K
-8 K
-9 K
950 m²/s²
900 m²/s²
850 m²/s²
800 m²/s²
750 m²/s²
700 m²/s²
650 m²/s²
600 m²/s²
550 m²/s²
500 m²/s²
450 m²/s²
400 m²/s²
350 m²/s²
300 m²/s²
250 m²/s²
200 m²/s²
150 m²/s²
100 m²/s²
46 m/s
44 m/s
42 m/s
40 m/s
38 m/s
36 m/s
34 m/s
32 m/s
30 m/s
28 m/s
26 m/s
24 m/s
22 m/s
20 m/s
16 m/s
12 m/s
8 m/s
4 m/s
30 m/s
28 m/s
26 m/s
24 m/s
22 m/s
20 m/s
18 m/s
16 m/s
14 m/s
12 m/s
10 m/s
8 m/s
6 m/s
4 m/s
2 m/s
3.0
2.8
2.6
2.4
2.2
2.0
1.8
1.6
1.4
1.2
1.0
0.8
0.6
0.4
0.2
15
14
13
12
11
10
9
8
7
6
5
4
3
2
1
90%
80%
70%
60%
50%
40%
30%
20%
10%
42
40
38
36
34
32
30
28
26
24
22
20
18
16
14
12
90+ cm
80-90 cm
70-80 cm
60-70 cm
50-60 cm
40-50 cm
30-40 cm
20-30 cm
10-20 cm
1-10 cm
Sneeuwval
Natte sneeuw
Regen
>120 mm
115 mm
110 mm
105 mm
100 mm
95 mm
90 mm
85 mm
80 mm
75 mm
70 mm
65 mm
60 mm
55 mm
50 mm
45 mm
45 mm
40 mm
35 mm
30 mm
25 mm
20 mm
15 mm
10 mm
5 mm
0.1 mm
960 hPa
880 hPa
800 hPa
720 hPa
640 hPa
560 hPa
584 gpdm
568 gpdm
552 gpdm
536 gpdm
520 gpdm
504 gpdm
488 gpdm
Extreem zwaar Noodweer Kans op onweer
15% 15% 5% 50% 15%

Dag




Kaart






35°
30°
25°
20°
15°
10°
-5°
-10°
-15°
-20°
-25°
-30°
-35°
120> km/h
105 km/h
90 km/h
75 km/h
60 km/h
50 km/h
40 km/h
30 km/h
20 km/h
10 km/h
0 km/h
Extreem zwaar Noodweer Kans op onweer
15% 15% 5% 50% 15%
>120 mm
115 mm
110 mm
105 mm
100 mm
95 mm
90 mm
85 mm
80 mm
75 mm
70 mm
65 mm
60 mm
55 mm
50 mm<